Erie, PA

12:53 PM EST on February 21, 2018 (GMT -0500)
Erie International

Weather History for KERI - April, 2013

Change the Weather History Date:

Monday, April 22, 2013

  Actual Average Record
Temperature  
Mean Temperature 48 °F 50 °F  
Max Temperature 61 °F 59 °F 85 °F (1902)
Min Temperature 34 °F 40 °F 26 °F (1959)
Degree Days  
Heating Degree Days 17 16  
Month to date heating degree days 450 429  
Since 1 July heating degree days 5539 5705  
Cooling Degree Days 0 0  
Month to date cooling degree days 0 0  
Year to date cooling degree days 0 1  
Moisture  
Dew Point 27 °F    
Average Humidity 53    
Maximum Humidity 75    
Minimum Humidity 30    
Precipitation  
Precipitation 0.00 in 0.10 in 1.12 in (1977)
Month to date precipitation 1.88 2.50  
Year to date precipitation 10.99 10.79  
Snow  
Snow 0.00 in 0.00 in - ()
Month to date snowfall 1.0 3.1  
Since 1 July snowfall 105.5 100.8  
Snow Depth 0.00 in    
Sea Level Pressure  
Sea Level Pressure 30.39 in    
Wind  
Wind Speed 12 mph (ESE)    
Max Wind Speed 22 mph    
Max Gust Speed 28 mph    
Visibility 10 miles    
Events      
T = Trace of Precipitation, MM = Missing Value Source: NWS Daily Summary

Daily Weather History Graph

Daily Weather History Graph

Search for Another Location

Airport or City:

Trip Planner

Search our weather history database for the weather conditions in past years. The results will help you decide how hot, cold, wet, or windy it might be!

Date:

Astronomy

Apr. 22, 2013 Rise Set
Actual Time 6:28 AM EDT 8:10 PM EDT
Civil Twilight 5:59 AM EDT 8:39 PM EDT
Nautical Twilight 5:23 AM EDT 9:15 PM EDT
Astronomical Twilight 4:45 AM EDT 9:54 PM EDT
Moon 4:54 PM EDT (4/22) 4:26 AM EDT (4/22)
Length of Visible Light 14h 40m
Length of Day
13h 41m
Waxing Gibbous, 87% of the Moon is Illuminated
Apr 22
Waxing Gibbous
Apr 25
Full
May 2
Last Quarter
May 9
New
May 18
First Quarter

Hourly Weather History & Observations

Time (EDT) Temp. Windchill Dew Point Humidity Pressure Visibility Wind Dir Wind Speed Gust Speed Precip Events Conditions
12:51 AM 36.0 °F - 28.9 °F 76% 30.51 in 10.0 mi Calm Calm - N/A   Clear
1:51 AM 37.0 °F 31.6 °F 26.1 °F 65% 30.49 in 10.0 mi SSE 6.9 mph - N/A   Clear
2:51 AM 39.9 °F 34.5 °F 23.0 °F 51% 30.48 in 10.0 mi SSE 8.1 mph - N/A   Clear
3:51 AM 41.0 °F 33.9 °F 21.9 °F 47% 30.46 in 10.0 mi SSE 12.7 mph - N/A   Clear
4:51 AM 39.9 °F 32.5 °F 21.9 °F 49% 30.45 in 10.0 mi SSE 12.7 mph - N/A   Clear
5:51 AM 41.0 °F 33.9 °F 21.9 °F 47% 30.45 in 10.0 mi SE 12.7 mph 23.0 mph N/A   Clear
6:51 AM 39.9 °F 32.1 °F 21.9 °F 49% 30.45 in 10.0 mi SSE 13.8 mph 21.9 mph N/A   Clear
7:51 AM 42.1 °F 33.6 °F 23.0 °F 47% 30.45 in 10.0 mi SSE 18.4 mph 24.2 mph N/A   Clear
8:51 AM 46.0 °F 39.9 °F 25.0 °F 44% 30.45 in 10.0 mi SSE 13.8 mph 23.0 mph N/A   Clear
9:51 AM 50.0 °F - 26.1 °F 39% 30.44 in 10.0 mi South 15.0 mph 26.5 mph N/A   Clear
10:51 AM 54.0 °F - 28.9 °F 38% 30.43 in 10.0 mi SSE 12.7 mph 19.6 mph N/A   Clear
11:51 AM 57.0 °F - 30.0 °F 36% 30.42 in 10.0 mi South 11.5 mph 20.7 mph N/A   Clear
12:51 PM 59.0 °F - 30.9 °F 35% 30.40 in 10.0 mi SSE 10.4 mph - N/A   Clear
1:51 PM 60.1 °F - 30.0 °F 32% 30.38 in 10.0 mi Variable 4.6 mph 19.6 mph N/A   Clear
2:51 PM 55.9 °F - 34.0 °F 44% 30.36 in 10.0 mi North 12.7 mph - N/A   Clear
3:37 PM 55.4 °F - 32.0 °F 41% 30.33 in 7.0 mi NNE 15.0 mph - N/A   Partly Cloudy
3:51 PM 55.0 °F - 32.0 °F 42% 30.34 in 10.0 mi NE 12.7 mph - N/A   Clear
4:51 PM 55.9 °F - 30.9 °F 39% 30.32 in 10.0 mi NE 15.0 mph - N/A   Clear
5:51 PM 55.9 °F - 28.9 °F 36% 30.30 in 10.0 mi ENE 12.7 mph - N/A   Clear
6:51 PM 55.0 °F - 28.0 °F 35% 30.29 in 10.0 mi NE 12.7 mph - N/A   Clear
7:51 PM 53.1 °F - 28.9 °F 40% 30.29 in 10.0 mi NE 8.1 mph - N/A   Clear
8:51 PM 51.1 °F - 28.0 °F 41% 30.29 in 10.0 mi East 6.9 mph - N/A   Clear
9:51 PM 51.1 °F - 28.0 °F 41% 30.29 in 10.0 mi SE 9.2 mph - N/A   Clear
10:51 PM 53.1 °F - 24.1 °F 32% 30.28 in 10.0 mi SSE 15.0 mph - N/A   Clear
11:51 PM 52.0 °F - 21.9 °F 31% 30.27 in 10.0 mi SE 13.8 mph 23.0 mph N/A   Clear